Year,Month,Day,Hour,Minute,Value (Times are PST for temperature in C)
2015,09,17,00,00,12.60
2015,09,17,00,01,12.60
2015,09,17,00,02,12.60
2015,09,17,00,03,12.60
2015,09,17,00,04,12.60
2015,09,17,00,05,12.60
2015,09,17,00,06,12.60
2015,09,17,00,07,12.60
2015,09,17,00,08,12.60
2015,09,17,00,09,12.60
2015,09,17,00,10,12.60
2015,09,17,00,11,12.60
2015,09,17,03,52,11.90
2015,09,17,03,53,11.90
2015,09,17,03,54,11.90
2015,09,17,03,55,11.90
2015,09,17,03,56,11.90
2015,09,17,03,57,11.90
2015,09,17,03,58,11.90
2015,09,17,03,59,11.90
2015,09,17,04,00,11.90
2015,09,17,04,01,11.90
2015,09,17,04,02,11.90
2015,09,17,04,03,11.90
2015,09,17,04,04,11.90
2015,09,17,04,05,11.90
2015,09,17,04,06,11.90
2015,09,17,04,07,11.90
2015,09,17,04,08,11.90
2015,09,17,04,09,11.90
2015,09,17,04,10,11.90
2015,09,17,04,11,11.90
2015,09,17,04,12,11.90
2015,09,17,04,13,11.90
2015,09,17,04,14,11.90
2015,09,17,06,13,12.00
2015,09,17,06,14,12.00
2015,09,17,06,15,12.00
2015,09,17,06,16,12.00
2015,09,17,06,17,12.00
2015,09,17,06,18,12.00
2015,09,17,06,19,12.00
2015,09,17,06,20,12.00
2015,09,17,06,21,12.00
2015,09,17,06,22,12.00
2015,09,17,06,23,12.00
2015,09,17,06,24,12.00
2015,09,17,06,25,12.10
2015,09,17,06,26,12.10
2015,09,17,06,27,12.20
2015,09,17,06,28,12.20
2015,09,17,06,29,12.20
2015,09,17,06,30,12.20
2015,09,17,06,31,12.20
2015,09,17,06,32,12.20
2015,09,17,06,33,12.20
2015,09,17,06,34,12.20
2015,09,17,06,35,12.20
2015,09,17,06,36,12.20
2015,09,17,06,37,12.20
2015,09,17,06,38,12.30
2015,09,17,06,39,12.30
2015,09,17,06,40,12.30
2015,09,17,06,41,12.30
2015,09,17,06,42,12.30
2015,09,17,06,43,12.30
2015,09,17,06,44,12.30
2015,09,17,06,45,12.30
2015,09,17,06,46,12.30
2015,09,17,06,47,12.30
2015,09,17,06,48,12.30
2015,09,17,06,49,12.30
2015,09,17,06,50,12.30
2015,09,17,06,51,12.30
2015,09,17,06,52,12.30
2015,09,17,06,53,12.30
2015,09,17,06,54,12.30
2015,09,17,06,55,12.30
2015,09,17,06,56,12.30
2015,09,17,06,57,12.30
2015,09,17,06,58,12.30
2015,09,17,06,59,12.30
2015,09,17,07,00,12.30
2015,09,17,07,01,12.30
2015,09,17,07,02,12.30
2015,09,17,07,03,12.30
2015,09,17,07,04,12.30
2015,09,17,07,05,12.30
2015,09,17,07,06,12.30
2015,09,17,07,07,12.30
2015,09,17,07,08,12.30
2015,09,17,07,09,12.30
2015,09,17,07,10,12.30
2015,09,17,07,11,12.30
2015,09,17,07,12,12.30
2015,09,17,07,13,12.30
2015,09,17,07,14,12.30
2015,09,17,07,15,12.30
2015,09,17,07,16,12.30
2015,09,17,07,17,12.30
2015,09,17,07,18,12.30
2015,09,17,07,19,12.30
2015,09,17,07,20,12.30
2015,09,17,07,21,12.30
2015,09,17,07,22,12.30
2015,09,17,07,23,12.30
2015,09,17,07,24,12.30
2015,09,17,07,25,12.30
2015,09,17,07,26,12.30
2015,09,17,07,27,12.30
2015,09,17,07,28,12.30
2015,09,17,07,29,12.30
2015,09,17,07,30,12.30
2015,09,17,07,31,12.30
2015,09,17,07,32,12.30
2015,09,17,07,33,12.30
2015,09,17,07,34,12.30
2015,09,17,07,35,12.30
2015,09,17,07,36,12.30
2015,09,17,07,37,12.30
2015,09,17,07,38,12.30
2015,09,17,07,39,12.30
2015,09,17,07,40,12.30
2015,09,17,07,41,12.30
2015,09,17,07,42,12.30
2015,09,17,07,43,12.30
2015,09,17,07,44,12.30
2015,09,17,07,45,12.30
2015,09,17,07,46,12.30
2015,09,17,07,47,12.30
2015,09,17,07,48,12.30
2015,09,17,07,49,12.30
2015,09,17,07,50,12.30
2015,09,17,07,51,12.30
2015,09,17,07,52,12.30
2015,09,17,07,53,12.30
2015,09,17,07,54,12.30
2015,09,17,07,55,12.30
2015,09,17,07,56,12.30
2015,09,17,07,57,12.30
2015,09,17,07,58,12.30
2015,09,17,07,59,12.30
2015,09,17,08,00,12.30
2015,09,17,08,01,12.30
2015,09,17,08,02,12.30
2015,09,17,08,03,12.30
2015,09,17,08,04,12.30
2015,09,17,08,05,12.30
2015,09,17,08,06,12.30
2015,09,17,08,07,12.30
2015,09,17,08,08,12.30
2015,09,17,08,09,12.30
2015,09,17,08,10,12.30
2015,09,17,08,11,12.30
2015,09,17,08,12,12.30
2015,09,17,08,13,12.30
2015,09,17,10,29,12.50
2015,09,17,10,30,12.50
2015,09,17,10,31,12.50
2015,09,17,10,32,12.50
2015,09,17,10,33,12.50
2015,09,17,10,34,12.50
2015,09,17,10,35,12.50
2015,09,17,10,36,12.50
2015,09,17,10,37,12.60
2015,09,17,10,38,12.60
2015,09,17,10,39,12.60
2015,09,17,10,40,12.60
2015,09,17,10,41,12.60
2015,09,17,10,42,12.60
2015,09,17,10,43,12.60
2015,09,17,10,44,12.60
2015,09,17,10,45,12.60
2015,09,17,10,46,12.60
2015,09,17,10,47,12.60
2015,09,17,10,48,12.70
2015,09,17,10,49,12.70
2015,09,17,10,50,12.70
2015,09,17,10,51,12.70
2015,09,17,10,52,12.70
2015,09,17,10,53,12.70
2015,09,17,10,54,12.80
2015,09,17,10,55,12.80
2015,09,17,10,56,12.80
2015,09,17,10,57,12.80
2015,09,17,10,58,12.80
2015,09,17,10,59,12.80
2015,09,17,11,00,12.80
2015,09,17,11,01,12.80
2015,09,17,11,02,12.80
2015,09,17,11,03,12.90
2015,09,17,11,04,12.90
2015,09,17,11,05,12.90
2015,09,17,11,06,12.90
2015,09,17,11,07,12.90
2015,09,17,11,08,13.00
2015,09,17,11,09,13.10
2015,09,17,11,10,13.10
2015,09,17,11,11,13.20
2015,09,17,11,12,13.20
2015,09,17,11,13,13.20
2015,09,17,11,14,13.30
2015,09,17,11,15,13.30
2015,09,17,11,16,13.30
2015,09,17,11,17,13.30
2015,09,17,11,18,13.40
2015,09,17,11,19,13.40
2015,09,17,11,20,13.50
2015,09,17,11,21,13.50
2015,09,17,11,22,13.60
2015,09,17,11,23,13.60
2015,09,17,11,24,13.60
2015,09,17,11,25,13.60
2015,09,17,11,26,13.50
2015,09,17,11,27,13.40
2015,09,17,11,28,13.40
2015,09,17,11,29,13.30
2015,09,17,11,30,13.30
2015,09,17,11,31,13.30
2015,09,17,11,32,13.40
2015,09,17,11,33,13.40
2015,09,17,11,34,13.40
2015,09,17,11,35,13.50
2015,09,17,11,36,13.50
2015,09,17,11,37,13.50
2015,09,17,11,38,13.50
2015,09,17,11,39,13.50
2015,09,17,11,40,13.50
2015,09,17,11,41,13.60
2015,09,17,11,42,13.60
2015,09,17,11,43,13.60
2015,09,17,11,44,13.70
2015,09,17,11,45,13.70
2015,09,17,11,46,13.70
2015,09,17,11,47,13.70
2015,09,17,11,48,13.80
2015,09,17,11,49,13.80
2015,09,17,11,50,13.80
2015,09,17,11,51,13.90
2015,09,17,11,52,13.90
2015,09,17,11,53,14.00
2015,09,17,11,54,14.10
2015,09,17,11,55,14.10
2015,09,17,11,56,14.10
2015,09,17,11,57,14.00
2015,09,17,11,58,14.00
2015,09,17,11,59,14.00
2015,09,17,12,00,14.10
2015,09,17,12,01,14.20
2015,09,17,12,02,14.20
2015,09,17,12,03,14.20
2015,09,17,12,04,14.30
2015,09,17,12,05,14.20
2015,09,17,12,06,14.20
2015,09,17,12,07,14.00
2015,09,17,12,08,13.90
2015,09,17,12,09,13.90
2015,09,17,12,10,13.80
2015,09,17,12,11,13.80
2015,09,17,12,12,13.90
2015,09,17,12,13,13.90
2015,09,17,12,14,14.00
2015,09,17,12,15,14.00
2015,09,17,12,16,14.10
2015,09,17,12,17,14.20
2015,09,17,12,18,14.20
2015,09,17,12,19,14.20
2015,09,17,12,20,14.20
2015,09,17,12,21,14.20
2015,09,17,12,22,14.20
2015,09,17,12,23,14.30
2015,09,17,12,24,14.30
2015,09,17,12,25,14.40
2015,09,17,12,26,14.40
2015,09,17,12,27,14.40
2015,09,17,12,28,14.40
2015,09,17,12,29,14.40
2015,09,17,12,30,14.40
2015,09,17,12,31,14.30
2015,09,17,12,32,14.30
2015,09,17,12,33,14.40
2015,09,17,12,34,14.50
2015,09,17,12,35,14.60
2015,09,17,12,36,14.70
2015,09,17,12,37,14.80
2015,09,17,12,38,14.70
2015,09,17,12,39,14.70
2015,09,17,12,40,14.70
2015,09,17,12,41,14.70
2015,09,17,12,42,14.60
2015,09,17,12,43,14.60
2015,09,17,12,44,14.60
2015,09,17,12,45,14.60
2015,09,17,12,46,14.60
2015,09,17,12,47,14.70
2015,09,17,12,48,14.70
2015,09,17,12,49,14.70
2015,09,17,12,50,14.80
2015,09,17,12,51,14.80
2015,09,17,12,52,14.90
2015,09,17,12,53,15.00
2015,09,17,12,54,15.10
2015,09,17,12,55,15.10
2015,09,17,12,56,15.10
2015,09,17,12,57,15.10
2015,09,17,12,58,15.20
2015,09,17,12,59,15.20
2015,09,17,13,00,15.10
2015,09,17,13,01,15.10
2015,09,17,13,02,15.20
2015,09,17,13,03,15.30
2015,09,17,13,04,15.30
2015,09,17,13,05,15.40
2015,09,17,13,06,15.50
2015,09,17,13,07,15.40
2015,09,17,13,08,15.30
2015,09,17,13,09,15.30
2015,09,17,13,10,15.20
2015,09,17,13,11,15.20
2015,09,17,13,12,15.20
2015,09,17,13,13,15.10
2015,09,17,13,14,15.10
2015,09,17,13,15,15.00
2015,09,17,13,16,14.80
2015,09,17,13,17,14.80
2015,09,17,13,18,14.80
2015,09,17,13,19,14.80
2015,09,17,13,20,14.70
2015,09,17,13,21,14.70
2015,09,17,13,22,14.70
2015,09,17,13,23,14.70
2015,09,17,13,24,14.70
2015,09,17,13,25,14.70
2015,09,17,13,26,14.60
2015,09,17,13,27,14.60
2015,09,17,13,28,14.60
2015,09,17,13,29,14.70
2015,09,17,13,30,14.70
2015,09,17,13,31,14.70
2015,09,17,13,32,14.70
2015,09,17,13,33,14.80
2015,09,17,13,34,14.80
2015,09,17,13,35,14.80
2015,09,17,13,36,14.90
2015,09,17,13,37,15.00
2015,09,17,13,38,15.00
2015,09,17,13,39,15.00
2015,09,17,13,40,15.00
2015,09,17,13,41,14.90
2015,09,17,13,42,14.90
2015,09,17,13,43,14.90
2015,09,17,13,44,14.90
2015,09,17,13,45,14.90
2015,09,17,13,46,14.90
2015,09,17,13,47,14.90
2015,09,17,13,48,15.00
2015,09,17,13,49,15.00
2015,09,17,13,50,15.00
2015,09,17,13,51,15.10
2015,09,17,13,52,15.10
2015,09,17,13,53,15.10
2015,09,17,13,54,15.10
2015,09,17,13,55,15.20
2015,09,17,13,56,15.20
2015,09,17,13,57,15.30
2015,09,17,13,58,15.30
2015,09,17,13,59,15.30
2015,09,17,14,00,15.30
2015,09,17,14,01,15.30
2015,09,17,14,02,15.30
2015,09,17,14,03,15.30
2015,09,17,14,04,15.20
2015,09,17,14,05,15.20
2015,09,17,14,06,15.20
2015,09,17,14,07,15.20
2015,09,17,14,08,15.20
2015,09,17,14,09,15.10
2015,09,17,14,10,15.10
2015,09,17,14,11,15.10
2015,09,17,14,12,15.10
2015,09,17,14,13,15.20
2015,09,17,14,14,15.20
2015,09,17,14,15,15.20
2015,09,17,14,16,15.20
2015,09,17,14,17,15.20
2015,09,17,14,18,15.20
2015,09,17,14,19,15.10
2015,09,17,14,20,15.10
2015,09,17,14,21,15.10
2015,09,17,14,22,15.10
2015,09,17,14,23,15.00
2015,09,17,14,24,14.90
2015,09,17,14,25,14.90
2015,09,17,14,26,14.80
2015,09,17,14,27,14.80
2015,09,17,14,28,14.80
2015,09,17,14,29,14.80
2015,09,17,14,30,14.80
2015,09,17,14,31,14.80
2015,09,17,14,32,14.80
2015,09,17,14,33,14.80
2015,09,17,14,34,14.80
2015,09,17,14,35,14.80
2015,09,17,14,36,14.80
2015,09,17,14,37,14.90
2015,09,17,14,38,14.90
2015,09,17,14,39,14.90
2015,09,17,14,40,14.90
2015,09,17,14,41,14.90
2015,09,17,14,42,15.00
2015,09,17,14,43,15.00
2015,09,17,14,44,15.00
2015,09,17,14,45,15.00
2015,09,17,14,46,15.00
2015,09,17,14,47,15.10
2015,09,17,14,48,15.20
2015,09,17,14,49,15.20
2015,09,17,14,50,15.20
2015,09,17,14,51,15.30
2015,09,17,14,52,15.40
2015,09,17,14,53,15.40
2015,09,17,14,54,15.40
2015,09,17,14,55,15.50
2015,09,17,14,56,15.60
2015,09,17,14,57,15.60
2015,09,17,14,58,15.60
2015,09,17,14,59,15.70
2015,09,17,15,00,15.80
2015,09,17,15,01,15.80
2015,09,17,15,02,15.80
2015,09,17,15,03,15.80
2015,09,17,15,04,15.90
2015,09,17,15,05,15.90
2015,09,17,15,06,15.90
2015,09,17,15,07,16.10
2015,09,17,15,08,16.20
2015,09,17,15,09,16.30
2015,09,17,15,10,16.40
2015,09,17,15,11,16.40
2015,09,17,15,12,16.40
2015,09,17,15,13,16.60
2015,09,17,15,14,16.70
2015,09,17,15,15,16.70
2015,09,17,15,16,16.80
2015,09,17,15,17,16.90
2015,09,17,15,18,16.90
2015,09,17,15,19,16.90
2015,09,17,15,20,17.00
2015,09,17,15,21,17.00
2015,09,17,15,22,17.00
2015,09,17,15,23,16.90
2015,09,17,15,24,16.90
2015,09,17,15,25,16.90
2015,09,17,15,26,16.80
2015,09,17,15,27,16.80
2015,09,17,15,28,16.80
2015,09,17,15,29,16.70
2015,09,17,15,30,16.40
2015,09,17,15,31,16.20
2015,09,17,15,32,16.10
2015,09,17,15,33,15.90
2015,09,17,15,34,15.70
2015,09,17,15,35,15.60
2015,09,17,15,36,15.60
2015,09,17,15,37,15.60
2015,09,17,15,38,15.60
2015,09,17,15,39,15.60
2015,09,17,15,40,15.60
2015,09,17,15,41,15.60
2015,09,17,15,42,15.50
2015,09,17,15,43,15.50
2015,09,17,15,44,15.50
2015,09,17,15,45,15.60
2015,09,17,15,46,15.70
2015,09,17,15,47,15.70
2015,09,17,15,48,15.70
2015,09,17,15,49,15.70
2015,09,17,15,50,15.70
2015,09,17,15,51,15.70
2015,09,17,15,52,15.70
2015,09,17,15,53,15.80
2015,09,17,15,54,15.80
2015,09,17,15,55,15.60
2015,09,17,15,56,15.60
2015,09,17,15,57,15.60
2015,09,17,15,58,15.60
2015,09,17,15,59,15.70
2015,09,17,16,00,15.70
2015,09,17,16,01,15.70
2015,09,17,16,02,15.80
2015,09,17,16,03,15.80
2015,09,17,16,04,15.80
2015,09,17,16,05,15.80
2015,09,17,16,06,15.80
2015,09,17,16,07,15.80
2015,09,17,16,08,15.80
2015,09,17,16,09,15.80
2015,09,17,16,10,15.80
2015,09,17,16,11,15.80
2015,09,17,16,12,15.80
2015,09,17,16,13,15.80
2015,09,17,16,14,15.80
2015,09,17,16,15,15.80
2015,09,17,16,16,15.90
2015,09,17,16,17,15.90
2015,09,17,16,18,15.90
2015,09,17,16,19,15.90
2015,09,17,16,20,15.90
2015,09,17,16,21,15.90
2015,09,17,16,22,15.80
2015,09,17,16,23,15.80
2015,09,17,16,24,15.80
2015,09,17,16,25,15.80
2015,09,17,16,26,15.80
2015,09,17,16,27,15.80
2015,09,17,16,28,15.80
2015,09,17,16,29,15.80
2015,09,17,16,30,15.80
2015,09,17,16,31,15.90
2015,09,17,16,32,16.00
2015,09,17,16,33,16.10
2015,09,17,16,34,16.30
2015,09,17,16,35,16.40
2015,09,17,16,36,16.50
2015,09,17,16,37,16.60
2015,09,17,16,38,16.70
2015,09,17,16,39,16.70
2015,09,17,16,40,16.80
2015,09,17,16,41,16.80
2015,09,17,16,42,16.90
2015,09,17,16,43,17.00
2015,09,17,16,44,17.00
2015,09,17,16,45,17.00
2015,09,17,16,46,17.00
2015,09,17,16,47,17.00
2015,09,17,16,48,17.00
2015,09,17,16,49,16.90
2015,09,17,16,50,16.70
2015,09,17,16,51,16.60
2015,09,17,16,52,16.50
2015,09,17,16,53,16.40
2015,09,17,16,54,16.40
2015,09,17,16,55,16.30
2015,09,17,16,56,16.30
2015,09,17,16,57,16.20
2015,09,17,16,58,16.10
2015,09,17,16,59,16.10
2015,09,17,17,00,16.10
2015,09,17,17,01,16.00
2015,09,17,17,02,15.90
2015,09,17,17,03,15.90
2015,09,17,17,04,15.80
2015,09,17,17,05,15.80
2015,09,17,17,06,15.80
2015,09,17,17,07,15.70
2015,09,17,17,08,15.60
2015,09,17,17,09,15.60
2015,09,17,17,10,15.60
2015,09,17,17,11,15.60
2015,09,17,17,12,15.50
2015,09,17,17,13,15.50
2015,09,17,17,14,15.50
2015,09,17,17,15,15.50
2015,09,17,17,16,15.50
2015,09,17,17,17,15.50
2015,09,17,17,18,15.50
2015,09,17,17,19,15.50
2015,09,17,17,20,15.50
2015,09,17,17,21,15.60
2015,09,17,17,22,15.60
2015,09,17,17,23,15.60
2015,09,17,17,24,15.60
2015,09,17,17,25,15.60
2015,09,17,17,26,15.60
2015,09,17,17,27,15.60
2015,09,17,17,28,15.60
2015,09,17,17,29,15.60
2015,09,17,17,30,15.60
2015,09,17,17,31,15.50
2015,09,17,17,32,15.50
2015,09,17,17,33,15.50
2015,09,17,17,34,15.50
2015,09,17,17,35,15.50
2015,09,17,17,36,15.50
2015,09,17,17,37,15.50
2015,09,17,17,38,15.50
2015,09,17,17,39,15.50
2015,09,17,17,40,15.50
2015,09,17,17,41,15.50
2015,09,17,17,42,15.50
2015,09,17,17,43,15.50
2015,09,17,17,44,15.60
2015,09,17,17,45,15.60
2015,09,17,17,46,15.70
2015,09,17,17,47,15.70
2015,09,17,17,48,15.70
2015,09,17,17,49,15.70
2015,09,17,17,50,15.70
2015,09,17,17,51,15.70
2015,09,17,17,52,15.70
2015,09,17,17,53,15.60
2015,09,17,17,54,15.50
2015,09,17,17,55,15.50
2015,09,17,17,56,15.50
2015,09,17,17,57,15.50
2015,09,17,17,58,15.50
2015,09,17,17,59,15.40
2015,09,17,18,00,15.40
2015,09,17,18,01,15.40
2015,09,17,18,02,15.40
2015,09,17,18,03,15.40
2015,09,17,18,04,15.40
2015,09,17,18,05,15.40
2015,09,17,18,06,15.30
2015,09,17,18,07,15.30
2015,09,17,18,08,15.30
2015,09,17,18,09,15.30
2015,09,17,18,10,15.30
2015,09,17,18,11,15.30
2015,09,17,18,12,15.30
2015,09,17,18,13,15.30
2015,09,17,18,14,15.30
2015,09,17,18,15,15.30
2015,09,17,18,16,15.30
2015,09,17,18,17,15.30
2015,09,17,18,18,15.30
2015,09,17,18,19,15.30
2015,09,17,18,20,15.20
2015,09,17,18,21,15.10
2015,09,17,18,22,15.10
2015,09,17,18,23,15.10
2015,09,17,18,24,15.00
2015,09,17,18,25,15.00
2015,09,17,18,26,15.00
2015,09,17,18,27,15.00
2015,09,17,18,28,15.00
2015,09,17,18,29,14.90
2015,09,17,18,30,14.90
2015,09,17,18,31,14.90
2015,09,17,18,32,14.90
2015,09,17,18,33,14.90
2015,09,17,18,34,14.90
2015,09,17,18,35,14.80
2015,09,17,18,36,14.80
2015,09,17,18,37,14.80
2015,09,17,18,38,14.80
2015,09,17,18,39,14.80
2015,09,17,18,40,14.80
2015,09,17,18,41,14.80
2015,09,17,18,42,14.70
2015,09,17,18,43,14.70
2015,09,17,18,44,14.70
2015,09,17,18,45,14.70
2015,09,17,18,46,14.70
2015,09,17,18,47,14.60
2015,09,17,18,48,14.60
2015,09,17,18,49,14.60
2015,09,17,18,50,14.60
2015,09,17,18,51,14.50
2015,09,17,18,52,14.50
2015,09,17,18,53,14.50
2015,09,17,18,54,14.50
2015,09,17,18,55,14.50
2015,09,17,18,56,14.50
2015,09,17,18,57,14.50
2015,09,17,18,58,14.50
2015,09,17,18,59,14.40
2015,09,17,19,00,14.40
2015,09,17,19,01,14.40
2015,09,17,19,02,14.30
2015,09,17,19,03,14.30
2015,09,17,19,04,14.30
2015,09,17,19,05,14.20
2015,09,17,19,06,14.20
2015,09,17,19,07,14.20
2015,09,17,19,08,14.20
2015,09,17,19,09,14.10
2015,09,17,19,10,14.10
2015,09,17,19,11,14.10
2015,09,17,19,12,14.00
2015,09,17,19,13,14.00
2015,09,17,19,14,13.90
2015,09,17,19,15,13.90
2015,09,17,19,16,13.90
2015,09,17,19,17,13.90
2015,09,17,19,18,13.90
2015,09,17,19,19,13.80
2015,09,17,19,20,13.80
2015,09,17,19,21,13.80
2015,09,17,19,22,13.80
2015,09,17,19,23,13.70
2015,09,17,19,24,13.70
2015,09,17,19,25,13.70
2015,09,17,19,26,13.70
2015,09,17,19,27,13.70
2015,09,17,19,28,13.70
2015,09,17,19,29,13.70
2015,09,17,19,30,13.70
2015,09,17,19,31,13.60
2015,09,17,19,32,13.60
2015,09,17,19,33,13.60
2015,09,17,19,34,13.60
2015,09,17,19,35,13.50
2015,09,17,19,36,13.50
2015,09,17,19,37,13.50
2015,09,17,19,38,13.40
2015,09,17,19,39,13.40
2015,09,17,19,40,13.40
2015,09,17,19,41,13.30
2015,09,17,19,42,13.30
2015,09,17,19,43,13.30
2015,09,17,19,44,13.30
2015,09,17,19,45,13.30
2015,09,17,19,46,13.30
2015,09,17,19,47,13.30
2015,09,17,19,48,13.20
2015,09,17,19,49,13.20
2015,09,17,19,50,13.20
2015,09,17,19,51,13.20
2015,09,17,19,52,13.20
2015,09,17,19,53,13.20
2015,09,17,19,54,13.10
2015,09,17,19,55,13.10
2015,09,17,19,56,13.10
2015,09,17,19,57,13.10
2015,09,17,19,58,13.10
2015,09,17,19,59,13.10
2015,09,17,20,00,13.10
2015,09,17,20,01,13.10
2015,09,17,20,02,13.10
2015,09,17,20,03,13.00
2015,09,17,20,04,13.00
2015,09,17,20,05,13.00
2015,09,17,20,06,13.00
2015,09,17,20,07,13.00
2015,09,17,20,08,13.00
2015,09,17,20,09,13.00
2015,09,17,20,10,13.00
2015,09,17,20,11,13.00
2015,09,17,20,12,12.90
2015,09,17,20,13,12.90
2015,09,17,20,14,12.90
2015,09,17,20,15,12.90
2015,09,17,20,16,12.90
2015,09,17,20,17,12.90
2015,09,17,20,18,12.90
2015,09,17,20,19,12.90
2015,09,17,20,20,12.90
2015,09,17,20,21,12.90
2015,09,17,20,22,12.90
2015,09,17,20,23,12.90
2015,09,17,20,24,12.80
2015,09,17,20,25,12.80
2015,09,17,20,26,12.80
2015,09,17,20,27,12.80
2015,09,17,20,28,12.80
2015,09,17,20,29,12.80
2015,09,17,20,30,12.80
2015,09,17,20,31,12.80
2015,09,17,20,32,12.80
2015,09,17,20,33,12.80
2015,09,17,20,34,12.80
2015,09,17,20,35,12.80
2015,09,17,20,36,12.80
2015,09,17,20,37,12.80
2015,09,17,20,38,12.70
2015,09,17,20,39,12.70
2015,09,17,20,40,12.70
2015,09,17,20,41,12.70
2015,09,17,20,42,12.70
2015,09,17,20,43,12.70
2015,09,17,20,44,12.70
2015,09,17,20,45,12.70
2015,09,17,20,46,12.60
2015,09,17,20,47,12.60
2015,09,17,20,48,12.60
2015,09,17,20,49,12.60
2015,09,17,20,50,12.60
2015,09,17,20,51,12.50
2015,09,17,20,52,12.50
2015,09,17,20,53,12.50
2015,09,17,20,54,12.50
2015,09,17,20,55,12.50
2015,09,17,20,56,12.50
2015,09,17,20,57,12.50
2015,09,17,20,58,12.40
2015,09,17,20,59,12.40
2015,09,17,21,00,12.40
2015,09,17,21,01,12.40
2015,09,17,21,02,12.40
2015,09,17,21,03,12.40
2015,09,17,21,04,12.30
2015,09,17,21,05,12.30
2015,09,17,21,06,12.30
2015,09,17,21,07,12.30
2015,09,17,21,08,12.30
2015,09,17,21,09,12.30
2015,09,17,21,10,12.30
2015,09,17,21,11,12.30
2015,09,17,21,12,12.30
2015,09,17,21,13,12.30
2015,09,17,21,14,12.30
2015,09,17,21,15,12.30
2015,09,17,21,16,12.30
2015,09,17,21,17,12.30
2015,09,17,21,18,12.30
2015,09,17,21,19,12.20
2015,09,17,21,20,12.20
2015,09,17,21,21,12.20
2015,09,17,21,22,12.20
2015,09,17,21,23,12.20
2015,09,17,21,24,12.20
2015,09,17,21,25,12.20
2015,09,17,21,26,12.30
2015,09,17,21,27,12.30
2015,09,17,21,28,12.30
2015,09,17,21,29,12.30
2015,09,17,21,30,12.30
2015,09,17,21,31,12.30
2015,09,17,21,32,12.30
2015,09,17,21,33,12.30
2015,09,17,21,34,12.30
2015,09,17,21,35,12.30
2015,09,17,21,36,12.30
2015,09,17,21,37,12.30
2015,09,17,21,38,12.30
2015,09,17,21,39,12.30
2015,09,17,21,40,12.30
2015,09,17,21,41,12.30
2015,09,17,21,42,12.30
2015,09,17,21,43,12.30
2015,09,17,21,44,12.30
2015,09,17,21,45,12.30
2015,09,17,21,46,12.30
2015,09,17,21,47,12.30
2015,09,17,21,48,12.30
2015,09,17,21,49,12.30
2015,09,17,21,50,12.30
2015,09,17,21,51,12.30
2015,09,17,21,52,12.30
2015,09,17,21,53,12.30
2015,09,17,21,54,12.30
2015,09,17,21,55,12.30
2015,09,17,21,56,12.30
2015,09,17,21,57,12.30
2015,09,17,21,58,12.30
2015,09,17,21,59,12.30
2015,09,17,22,00,12.30
2015,09,17,22,01,12.30
2015,09,17,22,02,12.30
2015,09,17,22,03,12.30
2015,09,17,22,04,12.30
2015,09,17,22,05,12.30
2015,09,17,22,06,12.30
2015,09,17,22,07,12.30
2015,09,17,22,08,12.30
2015,09,17,22,09,12.30
2015,09,17,22,10,12.30
2015,09,17,22,11,12.30
2015,09,17,22,12,12.30
2015,09,17,22,13,12.30
2015,09,17,22,14,12.30
2015,09,17,22,15,12.30
2015,09,17,22,16,12.30
2015,09,17,22,17,12.30
2015,09,17,22,18,12.30
2015,09,17,22,19,12.30
2015,09,17,22,20,12.30
2015,09,17,22,21,12.30
2015,09,17,22,22,12.30
2015,09,17,22,23,12.30
2015,09,17,22,24,12.30
2015,09,17,22,25,12.30
2015,09,17,22,26,12.30
2015,09,17,22,27,12.30
2015,09,17,22,28,12.40
2015,09,17,22,29,12.40
2015,09,17,22,30,12.40
2015,09,17,22,31,12.40
2015,09,17,22,32,12.50
2015,09,17,22,33,12.50
2015,09,17,22,34,12.50
2015,09,17,22,35,12.50
2015,09,17,22,36,12.50
2015,09,17,22,37,12.50
2015,09,17,22,38,12.50
2015,09,17,22,39,12.50
2015,09,17,22,40,12.50
2015,09,17,22,41,12.50
2015,09,17,22,42,12.60
2015,09,17,22,43,12.50
2015,09,17,22,44,12.60
2015,09,17,22,45,12.60
2015,09,17,22,46,12.60
2015,09,17,22,47,12.60
2015,09,17,22,48,12.60
2015,09,17,22,49,12.60
2015,09,17,22,50,12.60
2015,09,17,22,51,12.60
2015,09,17,22,52,12.60
2015,09,17,22,53,12.60
2015,09,17,22,54,12.60
2015,09,17,22,55,12.70
2015,09,17,22,56,12.70
2015,09,17,22,57,12.70
2015,09,17,22,58,12.70
2015,09,17,22,59,12.70
2015,09,17,23,00,12.70
2015,09,17,23,01,12.70
2015,09,17,23,02,12.70
2015,09,17,23,03,12.70
2015,09,17,23,04,12.70
2015,09,17,23,05,12.70
2015,09,17,23,06,12.70
2015,09,17,23,07,12.70
2015,09,17,23,08,12.70
2015,09,17,23,09,12.70
2015,09,17,23,10,12.70
2015,09,17,23,11,12.70
2015,09,17,23,12,12.70
2015,09,17,23,13,12.70
2015,09,17,23,14,12.70
2015,09,17,23,15,12.70
2015,09,17,23,16,12.70
2015,09,17,23,17,12.70
2015,09,17,23,18,12.70
2015,09,17,23,19,12.70
2015,09,17,23,20,12.70
2015,09,17,23,21,12.60
2015,09,17,23,22,12.60
2015,09,17,23,23,12.60
2015,09,17,23,24,12.60
2015,09,17,23,25,12.70
2015,09,17,23,26,12.70
2015,09,17,23,27,12.70
2015,09,17,23,28,12.70
2015,09,17,23,29,12.70
2015,09,17,23,30,12.70
2015,09,17,23,31,12.70
2015,09,17,23,32,12.70
2015,09,17,23,33,12.70
2015,09,17,23,34,12.70
2015,09,17,23,35,12.70
2015,09,17,23,36,12.70
2015,09,17,23,37,12.70
2015,09,17,23,38,12.70
2015,09,17,23,39,12.70
2015,09,17,23,40,12.70
2015,09,17,23,41,12.70
2015,09,17,23,42,12.70
2015,09,17,23,43,12.70
2015,09,17,23,44,12.70
2015,09,17,23,45,12.70
2015,09,17,23,46,12.70
2015,09,17,23,47,12.70
2015,09,17,23,48,12.70
2015,09,17,23,49,12.70
2015,09,17,23,50,12.60
2015,09,17,23,51,12.60
2015,09,17,23,52,12.60
2015,09,17,23,53,12.60
2015,09,17,23,54,12.60
2015,09,17,23,55,12.60
2015,09,17,23,56,12.50
2015,09,17,23,57,12.50
2015,09,17,23,58,12.50
2015,09,17,23,59,12.50
